Weather Roundup
Issued by NWS Chicago, IL

Home | Current Version | Previous Version | Graphics & Text | Print | Product List | Glossary On
Versions: 1 2 3 4 5 6 7 8 9 10 11 12 13 14 15 16 17 18 19 20 21 22 23 24 25 26 27 28 29 30 31 32 33 34 35 36 37 38 39 40 41 42 43 44 45 46 47 48 49 50
000
NZUS59 KLOT 070208
HRRLOT

CHICAGO AREA WEATHER ROUNDUP
NATIONAL WEATHER SERVICE CHICAGO/ROMEOVILLE IL
900 PM CDT MON JUL 06 2015

NOTE: "FAIR" INDICATES FEW OR NO CLOUDS BELOW 12,000 FEET WITH NO
SIGNIFICANT WEATHER AND/OR OBSTRUCTIONS TO VISIBILITY.

* THESE STATIONS ARE NOT UNDER NWS QUALITY CONTROL. THEY ALSO MAY NOT
  REPORT WEATHER SUCH AS PRECIPITATION OR FOG.

ILZ005-006-012>014-019>023-070300-
NORTHEAST ILLINOIS

CITY           SKY/WX    TMP DP  RH WIND       PRES   REMARKS
OHARE          TSTM      73  70  90 W21G26    29.88R FOG
MIDWAY         LGT RAIN  81  68  64 S13       29.86R HX  84
AURORA         LGT RAIN  73  69  87 S10       29.87F
LANSING*       CLOUDY    75  67  76 S7        29.88R
JOLIET*        HVY RAIN  76  73  90 W9        29.90R
WAUKEGAN       CLOUDY    77  70  79 S18G28    29.83R
DUPAGE AIRPORT LGT RAIN  72  70  93 S8        29.87F
WHEELING       HVY RAIN  74  71  91 W9G26     29.88R FOG
KANKAKEE*      LGT RAIN  77  74  89 S6        29.89R
MORRIS*        TSTM      73  70  89 W10G24    29.89R
LEWIS AIRPORT* RAIN      74  69  87 W18       29.89R
NORTHERLY IS     N/A     79  66  64 SW10        N/A  HX  81
$$

WIZ051-052-058>065-066-070>072-070300-
SOUTHEAST WISCONSIN

CITY           SKY/WX    TMP DP  RH WIND       PRES   REMARKS
MILWAUKEE      LGT RAIN  74  71  91 W5        29.82S
KENOSHA*       MOCLDY    75  70  84 SW8       29.83R
RACINE*        CLOUDY    73  69  87 SW3       29.84R
BURLINGTON     MOCLDY    72  70  94 SW5       29.84R
WAUKESHA       CLOUDY    73  70  88 CALM      29.83S
WEST BEND      CLOUDY    73  68  83 SW3       29.82R
$$

INZ001>003-010>013-019-020-070300-
NORTHWEST INDIANA

CITY           SKY/WX    TMP DP  RH WIND       PRES   REMARKS
GARY*          MOCLDY   N/A N/A N/A S7        29.87F
MICHIGAN CITY* NOT AVBL
RENSSELAER*    NOT AVBL
VALPARAISO     CLOUDY    72  68  87 S5        29.89R
$$

LMZ740>746-070300-
SOUTHERN LAKE MICHIGAN

STATION/POSITION TIME  SKY/WX   TEMP WIND        PRES    VSBY
                                AIR  DIR/SP/G
                 (UTC)          (F)  (DEG/KT/KT) (MB)    (MI)
HARRISON CRIB    0100            78  190/ 16/ 20   N/A
BURNHAM HARBOR   0200            78  180/ 10/ 15   N/A
CALUMET HARBOR   0100            78  180/  9/ 12   N/A
BURNS HARBOR     0100            76  170/  9/ 14 1011.5F
MICHIGAN CITY    0100            76  160/ 14/ 18   N/A
$$

ABBREVIATIONS USED IN REMARKS
   TC - TEMPERATURE IN CELSIUS
  WCI - WIND CHILL INDEX
   HX - HEAT INDEX
  VSB - VISIBILITY
$$



USA.gov is the U.S. government's official web portal to all federal, state and local government web resources and services.